Location: Apeadero de Los Molinos-Guadarrama
(40.7091°N, 4.0689°W)
Time: 13:19:19
(UTC+00:00)

Cosmos 372 Rocket - Pass Details

Date: 14 May 2021
Orbit: 738 x 768 km, 74.1° (Epoch: 18 June)

Event Time Altitude Azimuth Distance (km) Brightness Sun altitude
Exits shadow 22:42:59 67° 49° (NE) 801 4.0 -26.9°
Drops below altitude 10° 22:47:28 10° 22° (NNE) 2,253 7.0 -27.2°
Sets 22:49:50 0° 21° (NNE) 3,181 7.9 -27.4°
